Погода в Корсиках

Россия / Смоленская область     53°28′07″N   32°51′45″E
темп.,
°C
ветер,
м/с
пор.,
м/с
влажн.,
%
обл.,
%
осадки,
мм/ч
давл.,
гПа
погр.,
м
18 января, пн
пн1800:00−19всв239695 0.3 1019113
03:00−20всв229891 0.3 102066
06:00−19ссв229785 0.1 101965
09:00−20всв229692 0.1 102071
12:00−17св1289100 0.0 1021251
15:00−16с1288100 0.1 1020318
18:00−17ссв1295100 0.1 102095
21:00−17св1196100 0.1 102074
19 января, вт
вт1900:00−17с1196100 0.2 102064
03:00−17ссз229693 0.2 102068
06:00−17с119695 0.1 102059
09:00−17сз119797 0.2 102037
12:00−15зсз129096 0.0 1020245
15:00−14зсз229197 0.1 1019285
18:00−18зсз229777 0.0 102021
21:00−19з119739 0.0 102120
20 января, ср
ср2000:00−20з12970 0.0 102120
03:00−20зюз11980 0.0 102220
06:00−20юз129917 0.0 102120
09:00−19ююв22978 0.0 102220
12:00−14ю35890 0.0 1022233
15:00−12ю36890 0.0 1021296
18:00−14ююв489552 0.0 1021178
21:00−14ююв4109275 0.0 1021256
21 января, чт
чт2100:00−13ююв5129295 0.0 1019312
03:00−12ю6139298 0.0 1018386
06:00−9ю61493100 0.5 1015450
09:00−7ю61394100 1.3 1014466
12:00−5ююз61295100 1.1 1013488
15:00−3ююз61295100 2.1 1012497
18:00−1юз61294100 0.3 1012524
21:00−1юз51293100 0.3 1012466
22 января, пт
пт2200:00−2юз4119599 0.0 1012370
03:00−3ююз41196100 0.0 1012298
06:00−4ююз499592 0.0 1011202
09:00−2ю4109393 0.0 1011301
12:000ю51092100 0.0 1011335
15:000ю51192100 0.0 1009393
18:00−1ю5119290 0.0 1009336
21:00−1ю5119386 0.0 1008318